Other Surface Observations
Issued by NWS Upton, NY

Current Version | Previous Version | Text Only | Print | Product List | Glossary Off
Versions: 1 2 3 4 5 6 7 8 9 10 11 12 13 14 15 16 17 18 19 20 21 22 23 24 25 26 27 28 29 30 31 32 33 34 35 36 37 38 39 40 41 42 43 44 45 46 47 48 49 50

452
SXUS51 KOKX 250111
OSOOKX
NEW YORK CITY METROPOLITAN AREA WEATHER ROUNDUP
National Weather Service New York NY
800 PM EST FRI NOV 24 2017

CITY           SKY/WX    TMP DP  RH WIND       PRES   REMARKS
Central Park   CLEAR     48  25  40 VRB6      29.99S
LaGuardia APRT CLEAR     47  27  45 S6        29.97S
Kennedy INTL   CLEAR     45  35  68 SW8       29.99S
Newark Liberty CLEAR     45  28  51 S7        29.97S
Teterboro APRT CLEAR     42  29  59 CALM      29.96S
Bronx Bot Gard   N/A     45  27  49 CALM      29.99R
Bronx Lehman C   N/A     48 N/A N/A SW3         N/A
Queens College   N/A     46 N/A N/A SW7         N/A
Breezy Point     N/A     45 N/A N/A SW8         N/A
Brooklyn Coll    N/A     46 N/A N/A S5          N/A
Staten Island    N/A     45 N/A N/A S3          N/A

>>>>>>>>>>>>>>>>>>>>>>>>>>>>>>>>> KEY <<<<<<<<<<<<<<<<<<<<<<<<<<<<<<<
> SKY/WX - SKY CONDITION/PRESENT    : R : WCI - WIND CHILL INDEX    <
>          WEATHER                  : E : VSB - VISIBILITY IN MILES <
> TMP    - TEMPERATURE IN DEG F     : M : HX  - HEAT INDEX          <
> DP     - DEW POINT TEMPERATURE    : A : TC  - TEMPERATURE IN      <
> RH     - RELATIVE HUMIDITY        : R :       CELSIUS             <
> WIND   - DIRECTION/SPEED (MPH)    : K : VRB - VARIABLE WIND  DIR  <
> PRES   - PRESSURE (IN HG)         : S :                           <
>>>>>>>>>>>>>>>>>>>>>>>>>>>>>>>>> KEY <<<<<<<<<<<<<<<<<<<<<<<<<<<<<<<




USA.gov is the U.S. government's official web portal to all federal, state and local government web resources and services.